Weather History for KFFO - August, 2014

Change the Weather History Date:

Sunday, August 24, 2014

  Actual Average (WUND) Record (WUND)
Temperature  
Mean Temperature 77 °F -  
Max Temperature 87 °F - - (-1)
Min Temperature 68 °F - - (-1)
Cooling Degree Days 12    
Growing Degree Days 27 (Base 50)    
Moisture  
Dew Point 69 °F    
Average Humidity 77    
Maximum Humidity 95    
Minimum Humidity 56    
Precipitation  
Precipitation 0.00 in - - ()
Sea Level Pressure  
Sea Level Pressure 30.03 in    
Wind  
Wind Speed 5 mph (ENE)    
Max Wind Speed 8 mph    
Max Gust Speed -    
Visibility 10 miles    
Events      
Averages and records for this station are not official NWS values.
T = Trace of Precipitation, MM = Missing Value Source: NWS Daily Summary

Daily Weather History Graph

Daily Weather History Graph

Search for Another Location

Airport or City:

Trip Planner

Search our weather history database for the weather conditions in past years. The results will help you decide how hot, cold, wet, or windy it might be!

Date:

Astronomy

Aug. 24, 2014 Rise Set
Actual Time 6:56 AM EDT 8:19 PM EDT
Civil Twilight 6:28 AM EDT 8:47 PM EDT
Nautical Twilight 5:54 AM EDT 9:21 PM EDT
Astronomical Twilight 5:18 AM EDT 9:57 PM EDT
Moon 6:06 AM EDT (8/24) 7:37 PM EDT (8/24)
Length of Visible Light 14h 19m
Length of Day
13h 23m
Waning Crescent, 1% of the Moon is Illuminated
Aug 24
Waning Crescent
Aug 25
New
Sep 2
First Quarter
Sep 8
Full
Sep 15
Last Quarter

Hourly Weather History & Observations

Time (EDT) Temp. Heat Index Dew Point Humidity Pressure Visibility Wind Dir Wind Speed Gust Speed Precip Events Conditions
12:58 AM 73.4 °F - 70.3 °F 90% 30.01 in 10.0 mi NE 4.6 mph - N/A   Clear
1:58 AM 72.0 °F - 70.2 °F 94% 30.00 in 10.0 mi NE 5.8 mph - N/A   Clear
2:58 AM 71.4 °F - 69.6 °F 94% 29.99 in 10.0 mi NE 4.6 mph - N/A   Clear
3:58 AM 71.1 °F - 68.7 °F 92% 29.99 in 10.0 mi ENE 2.3 mph - N/A   Clear
4:58 AM 70.2 °F - 68.0 °F 93% 29.99 in 10.0 mi ENE 3.5 mph - N/A   Clear
5:58 AM 69.1 °F - 67.6 °F 95% 30.00 in 10.0 mi NE 4.6 mph - N/A   Clear
6:58 AM 68.4 °F - 66.9 °F 95% 30.03 in 10.0 mi NNE 3.5 mph - N/A   Clear
7:58 AM 68.7 °F - 67.3 °F 95% 30.04 in 10.0 mi NE 3.5 mph - N/A   Clear
8:58 AM 73.0 °F - 68.4 °F 85% 30.04 in 10.0 mi East 4.6 mph - N/A   Clear
9:58 AM 76.5 °F - 68.5 °F 76% 30.05 in 10.0 mi ESE 4.6 mph - 0.00 in   Clear
10:58 AM 79.5 °F - 69.1 °F 70% 30.06 in 10.0 mi East 3.5 mph - 0.00 in   Clear
11:58 AM 81.9 °F 84.8 °F 68.0 °F 63% 30.06 in 10.0 mi ESE 4.6 mph - N/A   Clear
12:58 PM 83.7 °F 87.5 °F 69.4 °F 62% 30.05 in 10.0 mi SE 5.8 mph - 0.00 in   Clear
1:58 PM 84.2 °F 88.4 °F 69.8 °F 62% 30.04 in 10.0 mi ENE 6.9 mph - 0.00 in   Clear
2:58 PM 85.5 °F 89.1 °F 68.9 °F 57% 30.03 in 10.0 mi East 5.8 mph - 0.00 in   Partly Cloudy
3:58 PM 83.8 °F 87.3 °F 68.7 °F 60% 30.02 in 10.0 mi ESE 3.5 mph - N/A   Partly Cloudy
4:58 PM 86.7 °F 91.0 °F 69.3 °F 56% 30.01 in 10.0 mi ESE 8.1 mph - 0.00 in   Partly Cloudy
5:58 PM 85.8 °F 90.4 °F 70.0 °F 59% 30.01 in 10.0 mi East 4.6 mph - N/A   Partly Cloudy
6:58 PM 82.9 °F 86.7 °F 69.8 °F 64% 30.01 in 10.0 mi East 6.9 mph - N/A   Clear
7:58 PM 81.0 °F 84.6 °F 70.5 °F 70% 30.01 in 10.0 mi East 5.8 mph - N/A   Clear
8:58 PM 78.4 °F - 70.3 °F 76% 30.02 in 10.0 mi East 5.8 mph - N/A   Clear
9:58 PM 75.6 °F - 69.4 °F 81% 30.04 in 10.0 mi NNE 3.5 mph - N/A   Clear
10:58 PM 74.8 °F - 69.1 °F 82% 30.05 in 10.0 mi Calm Calm - N/A   Clear
11:58 PM 75.0 °F - 69.1 °F 82% 30.06 in 10.0 mi North 1.2 mph - N/A   Clear